User: anonymous   Login
Location: Radomski Observatory
(40.2854°N, 79.5145°W)
Time: 11:33:32
(UTC-04:00)
Language:

Cosmos 1072 Rocket - Orbit

View from above orbital plane
View from above orbital plane
View from above satellite
View from above satellite

Ground track
Ground track

The orbit data is extracted from the following two-line orbital elements,

1 11239U 79003B   15117.15294899  .00000155  00000-0  14369-3 0  9994
2 11239 082.9361 309.0206 0041925 058.3815 079.8104 13.75768333820328
Epoch (UTC): 27 April 2015 03:40:14
Eccentricity: 0.0041925
inclination: 82.9361°
perigee height: 948 km
apogee height: 1010 km
right ascension of ascending node: 309.0206°
argument of perigee: 58.3815°
revolutions per day: 13.75768333
mean anomaly at epoch: 79.8104°
orbit number at epoch: 82032

The dashed part of the orbit path shows where the satellite is in the earth's shadow,  

DLR